Total_Precipitation_Accumulation
0.99 1.08 1.10 1.03 1.05 1.07 1.04 0.97 0.93 0.92 0.97 1.06 1.10 1.24 1.41 1.59 1.78 1.93 1.97 1.97 1.99 1.97 1.90 1.99 2.12 2.19 2.30 2.34 2.36 2.27 2.12 2.07 2.01 1.83 1.62 1.51 1.67 1.67 1.56 1.48 1.35 1.28 1.28
0.96 1.01 1.06 0.97 0.94 0.98 0.96 0.98 0.88 0.81 0.81 0.87 1.00 1.20 1.32 1.41 1.47 1.57 1.64 1.70 1.75 1.81 1.78 1.75 1.81 1.89 2.04 2.20 2.30 2.28 2.27 2.16 2.08 2.08 1.89 1.64 1.54 1.60 1.63 1.69 1.59 1.35 1.31
1.07 1.18 1.13 0.99 0.95 0.96 0.91 0.98 0.90 0.84 0.83 0.84 0.96 1.11 1.16 1.22 1.27 1.31 1.42 1.54 1.55 1.52 1.57 1.51 1.50 1.58 1.73 1.88 1.97 2.06 2.20 2.23 2.25 2.21 2.13 1.95 1.69 1.66 1.71 1.72 1.73 1.78 1.54
1.30 1.32 1.20 1.08 0.97 0.91 0.88 0.92 0.92 0.90 0.89 0.91 1.03 1.11 1.12 1.12 1.23 1.25 1.30 1.32 1.26 1.21 1.23 1.21 1.24 1.29 1.39 1.54 1.69 1.90 2.08 2.19 2.26 2.27 2.22 2.00 1.83 1.77 1.72 1.72 1.81 1.88 1.85
1.25 1.21 1.15 1.03 0.89 0.82 0.85 0.84 0.88 0.94 0.92 0.96 1.01 1.11 1.14 1.12 1.17 1.23 1.19 1.11 1.07 1.05 1.00 0.89 0.91 0.99 1.02 1.11 1.15 1.44 1.70 1.92 2.04 2.11 2.11 1.97 1.77 1.67 1.53 1.55 1.68 1.86 1.93
1.15 1.07 0.96 0.89 0.87 0.79 0.76 0.74 0.76 0.80 0.82 0.84 0.88 1.04 1.14 1.03 1.13 1.12 1.02 0.92 0.88 0.92 0.88 0.80 0.78 0.83 0.76 0.73 0.76 0.98 1.28 1.46 1.64 1.83 1.89 1.78 1.64 1.57 1.62 1.61 1.61 1.67 1.70
0.92 0.87 0.79 0.75 0.73 0.66 0.64 0.67 0.72 0.74 0.76 0.77 0.77 0.92 1.00 1.06 1.00 0.84 0.89 0.86 0.86 0.89 0.91 0.92 0.83 0.79 0.87 0.77 0.71 0.78 0.87 0.97 1.13 1.40 1.63 1.62 1.71 1.65 1.56 1.50 1.52 1.57 1.57
0.82 0.81 0.76 0.70 0.65 0.60 0.56 0.59 0.70 0.73 0.70 0.70 0.71 0.73 0.79 0.94 0.89 0.72 0.77 0.75 0.86 0.93 0.96 1.04 1.04 0.97 0.95 1.01 0.95 0.95 0.91 0.84 0.92 0.84 1.05 1.42 1.57 1.64 1.60 1.63 1.73 1.67 1.54
0.61 0.68 0.64 0.56 0.58 0.61 0.58 0.63 0.67 0.67 0.69 0.67 0.69 0.69 0.73 0.79 0.78 0.70 0.72 0.77 0.90 0.91 0.87 0.99 1.04 0.99 1.04 1.10 1.19 1.24 1.16 1.01 1.12 1.12 1.03 1.14 1.29 1.35 1.47 1.56 1.63 1.57 1.53
0.39 0.45 0.48 0.45 0.48 0.54 0.63 0.69 0.67 0.63 0.68 0.69 0.65 0.62 0.63 0.65 0.72 0.64 0.74 0.83 0.87 0.88 0.89 0.95 1.11 1.04 1.01 0.98 1.05 1.18 1.16 1.03 0.91 0.94 0.91 0.81 0.75 0.87 1.07 1.24 1.53 1.65 1.60
0.34 0.35 0.37 0.37 0.40 0.48 0.53 0.51 0.52 0.55 0.60 0.60 0.61 0.59 0.58 0.64 0.77 0.77 0.82 0.82 0.86 0.93 1.01 1.05 1.03 1.13 0.97 0.92 0.92 0.92 1.01 1.00 0.98 1.02 1.09 0.98 0.86 0.81 0.86 0.94 1.16 1.40 1.55
0.30 0.32 0.32 0.29 0.30 0.32 0.37 0.42 0.44 0.46 0.48 0.47 0.48 0.48 0.52 0.62 0.71 0.72 0.74 0.78 0.86 0.86 0.90 0.91 0.88 0.97 0.83 0.74 0.68 0.74 0.81 0.86 0.94 1.06 1.05 1.00 0.99 0.93 0.92 0.96 1.03 1.14 1.25
0.30 0.30 0.30 0.29 0.28 0.30 0.33 0.36 0.41 0.45 0.48 0.45 0.42 0.42 0.47 0.51 0.58 0.62 0.61 0.61 0.65 0.66 0.63 0.74 0.77 0.74 0.69 0.62 0.65 0.69 0.71 0.72 0.83 0.91 0.93 0.89 0.89 0.93 0.94 0.96 0.99 1.04 1.05
0.26 0.27 0.27 0.28 0.30 0.30 0.33 0.38 0.44 0.44 0.40 0.38 0.40 0.42 0.47 0.51 0.51 0.50 0.52 0.52 0.52 0.57 0.55 0.59 0.62 0.59 0.58 0.59 0.62 0.66 0.71 0.74 0.77 0.80 0.80 0.83 0.84 0.90 0.96 0.95 0.97 1.04 1.11
0.24 0.23 0.23 0.26 0.28 0.29 0.27 0.29 0.36 0.38 0.36 0.38 0.39 0.43 0.46 0.49 0.48 0.45 0.44 0.49 0.53 0.59 0.65 0.60 0.58 0.58 0.58 0.64 0.67 0.66 0.69 0.72 0.72 0.71 0.73 0.75 0.75 0.81 0.86 0.87 0.91 0.96 1.01
0.24 0.23 0.24 0.25 0.27 0.27 0.26 0.26 0.29 0.30 0.34 0.34 0.32 0.32 0.30 0.30 0.34 0.35 0.35 0.40 0.47 0.53 0.65 0.72 0.74 0.80 0.81 0.80 0.77 0.68 0.62 0.63 0.69 0.74 0.75 0.75 0.76 0.75 0.79 0.82 0.86 0.95 0.99
0.28 0.26 0.26 0.26 0.25 0.24 0.26 0.29 0.30 0.28 0.25 0.25 0.26 0.25 0.25 0.26 0.28 0.29 0.31 0.35 0.38 0.45 0.62 0.79 0.82 0.80 0.76 0.73 0.68 0.61 0.55 0.52 0.55 0.65 0.75 0.82 0.82 0.81 0.84 0.88 0.89 0.88 0.89
0.36 0.37 0.31 0.27 0.27 0.27 0.28 0.33 0.38 0.39 0.34 0.26 0.24 0.25 0.24 0.24 0.26 0.29 0.36 0.42 0.39 0.41 0.58 0.69 0.72 0.71 0.64 0.58 0.50 0.44 0.43 0.42 0.43 0.48 0.53 0.61 0.76 0.88 0.96 0.99 1.01 1.04 1.03
0.37 0.39 0.38 0.38 0.35 0.33 0.34 0.38 0.41 0.39 0.32 0.28 0.27 0.26 0.24 0.24 0.25 0.26 0.30 0.35 0.35 0.36 0.40 0.41 0.43 0.45 0.44 0.41 0.37 0.37 0.38 0.39 0.40 0.42 0.44 0.49 0.59 0.74 0.92 1.02 1.06 1.11 1.11
0.27 0.34 0.38 0.41 0.41 0.37 0.38 0.40 0.40 0.38 0.31 0.29 0.28 0.26 0.25 0.25 0.24 0.24 0.25 0.28 0.33 0.34 0.33 0.33 0.34 0.35 0.34 0.33 0.33 0.35 0.38 0.39 0.38 0.41 0.46 0.52 0.63 0.69 0.75 0.87 1.01 1.04 0.99
0.22 0.24 0.29 0.34 0.36 0.36 0.35 0.35 0.39 0.41 0.37 0.33 0.31 0.30 0.30 0.29 0.30 0.28 0.26 0.27 0.30 0.32 0.33 0.35 0.38 0.38 0.37 0.40 0.40 0.39 0.40 0.42 0.42 0.42 0.45 0.52 0.61 0.72 0.79 0.82 0.85 0.89 0.94
0.21 0.22 0.22 0.26 0.30 0.32 0.32 0.31 0.34 0.39 0.40 0.37 0.37 0.36 0.36 0.34 0.33 0.34 0.34 0.35 0.36 0.37 0.38 0.41 0.44 0.42 0.40 0.42 0.45 0.46 0.46 0.46 0.45 0.46 0.50 0.52 0.56 0.63 0.73 0.80 0.83 0.85 0.87
0.18 0.19 0.21 0.24 0.27 0.29 0.30 0.29 0.30 0.33 0.35 0.35 0.34 0.35 0.35 0.34 0.33 0.34 0.37 0.38 0.39 0.42 0.45 0.51 0.52 0.49 0.47 0.48 0.48 0.48 0.49 0.51 0.51 0.51 0.55 0.57 0.57 0.59 0.65 0.71 0.72 0.74 0.76
0.21 0.23 0.25 0.27 0.27 0.26 0.26 0.28 0.29 0.30 0.32 0.34 0.35 0.37 0.37 0.36 0.34 0.33 0.34 0.36 0.37 0.39 0.41 0.45 0.48 0.50 0.53 0.55 0.56 0.53 0.53 0.56 0.53 0.52 0.58 0.67 0.66 0.65 0.68 0.71 0.71 0.72 0.79
0.26 0.25 0.26 0.27 0.28 0.28 0.27 0.27 0.28 0.29 0.31 0.35 0.38 0.40 0.40 0.39 0.38 0.37 0.37 0.38 0.40 0.39 0.40 0.41 0.42 0.45 0.50 0.57 0.58 0.56 0.62 0.64 0.60 0.53 0.52 0.60 0.65 0.66 0.71 0.74 0.78 0.84 0.93
0.28 0.27 0.28 0.27 0.27 0.28 0.30 0.31 0.31 0.34 0.35 0.36 0.37 0.38 0.39 0.41 0.42 0.44 0.45 0.44 0.43 0.40 0.39 0.41 0.43 0.43 0.44 0.51 0.58 0.64 0.65 0.61 0.63 0.66 0.60 0.59 0.64 0.69 0.76 0.83 0.87 0.96 1.03